| time (UTC) | temp F | wind direction | speed knots | gust knots | rain 1hr in | rain 24hr in | rain mn in | humidity % | barometer mb |
| 20260831042011 | 61 | 190 | 0.9 | 4.3 | 0.01 | 0.34 | 0.34 | 91 | 1013.4 |
| 20260831041011 | 61 | 186 | 1.7 | 4.3 | 0.01 | 0.34 | 0.34 | 91 | 1013.4 |
| 20260831040011 | 61 | 180 | 0.9 | 3.5 | 0.01 | 0.34 | 0.34 | 91 | 1013.6 |
| 20260831035011 | 61 | 192 | 0.9 | 5.2 | 0.02 | 0.34 | 0.34 | 90 | 1013.6 |
| 20260831034010 | 61 | 191 | 0.9 | 3.5 | 0.04 | 0.34 | 0.34 | 90 | 1013.3 |
| 20260831033011 | 61 | 191 | 0.9 | 4.3 | 0.19 | 0.34 | 0.34 | 89 | 1013.3 |
| 20260831032011 | 61 | 192 | 1.7 | 4.3 | 0.33 | 0.33 | 0.33 | 88 | 1013.4 |
| 20260831031010 | 61 | 194 | 0.9 | 3.5 | 0.33 | 0.33 | 0.33 | 87 | 1013.5 |
| 20260831030010 | 61 | 194 | 2.6 | 6.1 | 0.33 | 0.33 | 0.33 | 86 | 1013.4 |
| 20260831025019 | 61 | 180 | 2.6 | 8.7 | 0.32 | 0.32 | 0.32 | 85 | 1013.6 |
| 20260831024010 | 62 | 240 | 2.6 | 7.8 | 0.30 | 0.30 | 0.30 | 83 | 1013.5 |
| 20260831023011 | 62 | 190 | 4.3 | 11.3 | 0.15 | 0.15 | 0.15 | 81 | 1014.0 |
| 20260831022010 | 61 | 144 | 0.9 | 2.6 | 0.00 | 0.00 | 0.00 | 79 | 1013.0 |
| 20260831021010 | 61 | 124 | 0.9 | 2.6 | 0.00 | 0.00 | 0.00 | 78 | 1012.0 |
| 20260831020010 | 61 | 124 | 0.9 | 2.6 | 0.00 | 0.00 | 0.00 | 79 | 1012.3 |
| 20260831015010 | 61 | 124 | 0.9 | 1.7 | 0.00 | 0.00 | 0.00 | 79 | 1012.5 |
| 20260831014010 | 61 | 124 | 0.0 | 1.7 | 0.00 | 0.00 | 0.00 | 79 | 1012.6 |
| 20260831013010 | 61 | 124 | 0.0 | 1.7 | 0.00 | 0.00 | 0.00 | 79 | 1012.6 |
| 20260831012011 | 61 | 124 | 0.9 | 3.5 | 0.00 | 0.00 | 0.00 | 81 | 1012.7 |
| 20260831011009 | 60 | 124 | 1.7 | 3.5 | 0.00 | 0.00 | 0.00 | 85 | 1012.7 |
| 20260831010010 | 60 | 124 | 1.7 | 3.5 | 0.00 | 0.00 | 0.00 | 86 | 1013.0 |
| 20260831005010 | 59 | 135 | 1.7 | 2.6 | 0.00 | 0.00 | 0.00 | 86 | 1013.2 |
| 20260831004010 | 59 | 135 | 1.7 | 2.6 | 0.00 | 0.00 | 0.00 | 86 | 1013.1 |
| 20260831003010 | 59 | 135 | 1.7 | 3.5 | 0.00 | 0.00 | 0.00 | 86 | 1013.1 |
| 20260831002010 | 59 | 136 | 0.9 | 2.6 | 0.00 | 0.00 | 0.00 | 86 | 1013.5 |
| 20260831001010 | 59 | 136 | 0.9 | 1.7 | 0.00 | 0.00 | 0.00 | 86 | 1013.6 |
| 20260831000010 | 59 | 136 | 0.9 | 2.6 | 0.00 | 0.00 | 0.00 | 85 | 1013.7 |
| 20260830235010 | 59 | 136 | 0.9 | 1.7 | 0.00 | 0.00 | 0.00 | 85 | 1013.7 |
| 20260830234009 | 60 | 136 | 1.7 | 2.6 | 0.00 | 0.00 | 0.00 | 85 | 1013.8 |
| 20260830233010 | 60 | 136 | 1.7 | 2.6 | 0.00 | 0.00 | 0.00 | 85 | 1014.0 |
| 20260830232011 | 60 | 136 | 0.9 | 3.5 | 0.00 | 0.00 | 0.00 | 85 | 1014.0 |
| 20260830231009 | 59 | 212 | 0.0 | 0.0 | 0.00 | 0.00 | 0.00 | 81 | 1014.1 |
| 20260830230010 | 59 | 212 | 0.0 | 0.0 | 0.00 | 0.00 | 0.00 | 81 | 1014.1 |
| 20260830225010 | 59 | 212 | 0.0 | 0.0 | 0.00 | 0.00 | 0.00 | 80 | 1014.1 |
| 20260830224010 | 60 | 212 | 0.0 | 0.0 | 0.00 | 0.00 | 0.00 | 80 | 1014.1 |
| 20260830223010 | 60 | 212 | 0.0 | 0.0 | 0.00 | 0.00 | 0.00 | 78 | 1014.2 |
| 20260830222016 | 60 | 212 | 0.0 | 0.0 | 0.00 | 0.00 | 0.00 | 78 | 1014.2 |
| 20260830221010 | 60 | 212 | 0.0 | 0.0 | 0.00 | 0.00 | 0.00 | 77 | 1014.3 |
| 20260830220009 | 60 | 212 | 0.0 | 0.0 | 0.00 | 0.00 | 0.00 | 76 | 1014.4 |
| 20260830215008 | 60 | 212 | 0.0 | 0.0 | 0.00 | 0.00 | 0.00 | 74 | 1014.5 |
| 20260830214008 | 61 | 212 | 0.0 | 0.0 | 0.00 | 0.00 | 0.00 | 74 | 1014.4 |
| 20260830213009 | 61 | 212 | 0.0 | 0.0 | 0.00 | 0.00 | 0.00 | 73 | 1014.4 |
| 20260830212008 | 61 | 212 | 0.0 | 0.0 | 0.00 | 0.00 | 0.00 | 72 | 1014.3 |
| 20260830211008 | 62 | 212 | 0.0 | 0.0 | 0.00 | 0.00 | 0.00 | 72 | 1014.4 |
| 20260830210008 | 62 | 212 | 0.0 | 0.0 | 0.00 | 0.00 | 0.00 | 72 | 1014.4 |
| 20260830205008 | 62 | 212 | 0.0 | 0.0 | 0.00 | 0.00 | 0.00 | 72 | 1014.5 |
| 20260830204008 | 63 | 212 | 0.0 | 0.0 | 0.00 | 0.00 | 0.00 | 71 | 1014.5 |
| 20260830203013 | 63 | 212 | 0.0 | 0.0 | 0.00 | 0.00 | 0.00 | 71 | 1014.5 |
| 20260830202014 | 63 | 212 | 0.0 | 0.0 | 0.00 | 0.00 | 0.00 | 70 | 1014.5 |
| 20260830201013 | 64 | 212 | 0.0 | 0.0 | 0.00 | 0.00 | 0.00 | 69 | 1014.4 |
| 20260830200013 | 64 | 212 | 0.0 | 0.0 | 0.00 | 0.00 | 0.00 | 69 | 1014.5 |
| 20260830195013 | 65 | 212 | 0.0 | 0.0 | 0.00 | 0.00 | 0.00 | 68 | 1014.5 |
| 20260830194013 | 65 | 212 | 0.0 | 0.0 | 0.00 | 0.00 | 0.00 | 66 | 1014.5 |
| 20260830193013 | 66 | 212 | 0.0 | 0.0 | 0.00 | 0.00 | 0.00 | 65 | 1014.4 |
| 20260830192013 | 67 | 212 | 0.0 | 0.0 | 0.00 | 0.00 | 0.00 | 64 | 1014.4 |
| 20260830191013 | 67 | 212 | 0.0 | 0.0 | 0.00 | 0.00 | 0.00 | 62 | 1014.4 |
| 20260830190013 | 68 | 212 | 0.0 | 0.0 | 0.00 | 0.00 | 0.00 | 60 | 1014.4 |
| 20260830185013 | 68 | 212 | 0.0 | 0.0 | 0.00 | 0.00 | 0.00 | 59 | 1014.4 |
| 20260830184013 | 69 | 212 | 0.0 | 1.7 | 0.00 | 0.00 | 0.00 | 58 | 1014.3 |
| 20260830183013 | 70 | 212 | 0.9 | 2.6 | 0.00 | 0.00 | 0.00 | 57 | 1014.2 |
| 20260830182013 | 70 | 212 | 1.7 | 2.6 | 0.00 | 0.00 | 0.00 | 56 | 1014.2 |
| 20260830181013 | 71 | 212 | 1.7 | 3.5 | 0.00 | 0.00 | 0.00 | 56 | 1014.2 |
| 20260830180013 | 72 | 212 | 1.7 | 3.5 | 0.00 | 0.00 | 0.00 | 55 | 1014.1 |
| 20260830175013 | 72 | 217 | 1.7 | 5.2 | 0.00 | 0.00 | 0.00 | 55 | 1013.9 |
| 20260830174013 | 73 | 233 | 1.7 | 3.5 | 0.00 | 0.00 | 0.00 | 54 | 1013.9 |
| 20260830173013 | 74 | 172 | 1.7 | 5.2 | 0.00 | 0.00 | 0.00 | 54 | 1013.8 |
| 20260830172012 | 74 | 189 | 2.6 | 7.8 | 0.00 | 0.00 | 0.00 | 54 | 1013.7 |
| 20260830171013 | 75 | 226 | 1.7 | 8.7 | 0.00 | 0.00 | 0.00 | 54 | 1013.8 |
| 20260830170012 | 75 | 196 | 3.5 | 8.7 | 0.00 | 0.00 | 0.00 | 54 | 1013.9 |
| 20260830165012 | 75 | 218 | 2.6 | 6.1 | 0.00 | 0.00 | 0.00 | 53 | 1013.8 |
| 20260830164012 | 75 | 225 | 3.5 | 10.4 | 0.00 | 0.00 | 0.00 | 54 | 1013.7 |
| 20260830163012 | 76 | 241 | 4.3 | 9.6 | 0.00 | 0.00 | 0.00 | 54 | 1013.8 |
| 20260830162013 | 76 | 246 | 3.5 | 10.4 | 0.00 | 0.00 | 0.00 | 54 | 1013.8 |
| 20260830161012 | 76 | 183 | 4.3 | 11.3 | 0.00 | 0.00 | 0.00 | 53 | 1013.6 |
| 20260830160012 | 76 | 163 | 3.5 | 7.8 | 0.00 | 0.00 | 0.00 | 53 | 1013.6 |
| 20260830155012 | 76 | 220 | 4.3 | 9.6 | 0.00 | 0.00 | 0.00 | 53 | 1013.8 |
| 20260830154012 | 77 | 219 | 3.5 | 9.6 | 0.00 | 0.00 | 0.00 | 53 | 1013.7 |
| 20260830153012 | 77 | 211 | 3.5 | 9.6 | 0.00 | 0.00 | 0.00 | 53 | 1013.7 |
| 20260830152012 | 76 | 179 | 4.3 | 11.3 | 0.00 | 0.00 | 0.00 | 53 | 1013.9 |
| 20260830151012 | 76 | 192 | 3.5 | 8.7 | 0.00 | 0.00 | 0.00 | 53 | 1014.0 |
| 20260830150013 | 76 | 246 | 3.5 | 7.0 | 0.00 | 0.00 | 0.00 | 54 | 1014.1 |
| 20260830145012 | 76 | 261 | 2.6 | 7.8 | 0.00 | 0.00 | 0.00 | 54 | 1014.2 |
| 20260830144012 | 76 | 297 | 4.3 | 10.4 | 0.00 | 0.00 | 0.00 | 54 | 1014.2 |
| 20260830143012 | 76 | 225 | 4.3 | 11.3 | 0.00 | 0.00 | 0.00 | 52 | 1014.1 |
| 20260830142011 | 77 | 194 | 4.3 | 11.3 | 0.00 | 0.00 | 0.00 | 53 | 1014.3 |
| 20260830141011 | 77 | 283 | 5.2 | 10.4 | 0.00 | 0.00 | 0.00 | 52 | 1014.3 |
| 20260830140012 | 78 | 221 | 5.2 | 11.3 | 0.00 | 0.00 | 0.00 | 52 | 1014.2 |
| 20260830135012 | 78 | 263 | 5.2 | 13.0 | 0.00 | 0.00 | 0.00 | 52 | 1014.3 |
| 20260830134012 | 78 | 201 | 5.2 | 11.3 | 0.00 | 0.00 | 0.00 | 52 | 1014.4 |
| 20260830133011 | 78 | 225 | 6.1 | 13.0 | 0.00 | 0.00 | 0.00 | 53 | 1014.4 |
| 20260830132012 | 78 | 213 | 6.1 | 14.8 | 0.00 | 0.00 | 0.00 | 52 | 1014.5 |
| 20260830131012 | 78 | 219 | 6.1 | 13.0 | 0.00 | 0.00 | 0.00 | 51 | 1014.5 |
| 20260830130012 | 77 | 29 | 5.2 | 14.8 | 0.00 | 0.00 | 0.00 | 52 | 1014.5 |
| 20260830125012 | 77 | 232 | 2.6 | 11.3 | 0.00 | 0.00 | 0.00 | 53 | 1014.5 |
| 20260830124011 | 77 | 12 | 7.0 | 14.8 | 0.00 | 0.00 | 0.00 | 52 | 1014.5 |
| 20260830123012 | 78 | 252 | 6.1 | 13.9 | 0.00 | 0.00 | 0.00 | 50 | 1014.6 |
| 20260830122011 | 79 | 188 | 5.2 | 13.0 | 0.00 | 0.00 | 0.00 | 53 | 1014.7 |
| 20260830121011 | 78 | 208 | 4.3 | 14.8 | 0.00 | 0.00 | 0.00 | 52 | 1014.5 |
| 20260830120012 | 78 | 161 | 7.0 | 15.6 | 0.00 | 0.00 | 0.00 | 52 | 1014.6 |
| 20260830115012 | 78 | 246 | 7.0 | 13.0 | 0.00 | 0.00 | 0.00 | 50 | 1014.7 |
| 20260830114012 | 77 | 249 | 7.0 | 15.6 | 0.00 | 0.00 | 0.00 | 52 | 1014.6 |
| 20260830113011 | 77 | 209 | 7.0 | 14.8 | 0.00 | 0.00 | 0.00 | 50 | 1014.6 |
| 20260830112011 | 77 | 240 | 7.0 | 12.2 | 0.00 | 0.00 | 0.00 | 51 | 1014.7 |
| 20260830111011 | 77 | 227 | 5.2 | 15.6 | 0.00 | 0.00 | 0.00 | 51 | 1014.8 |
| 20260830110012 | 77 | 292 | 7.0 | 14.8 | 0.00 | 0.00 | 0.00 | 51 | 1014.9 |
| 20260830105012 | 77 | 184 | 3.5 | 12.2 | 0.00 | 0.00 | 0.00 | 53 | 1015.0 |
| 20260830104010 | 77 | 183 | 6.1 | 12.2 | 0.00 | 0.00 | 0.00 | 51 | 1015.0 |
| 20260830103017 | 76 | 215 | 2.6 | 13.0 | 0.00 | 0.00 | 0.00 | 53 | 1015.1 |
| 20260830102012 | 74 | 228 | 5.2 | 12.2 | 0.00 | 0.00 | 0.00 | 53 | 1015.2 |
| 20260830101010 | 74 | 200 | 6.1 | 13.9 | 0.00 | 0.00 | 0.00 | 52 | 1015.2 |
| 20260830100011 | 75 | 246 | 5.2 | 13.9 | 0.00 | 0.00 | 0.00 | 50 | 1015.3 |
| 20260830095010 | 74 | 279 | 3.5 | 9.6 | 0.00 | 0.00 | 0.00 | 53 | 1015.3 |
| 20260830094010 | 74 | 279 | 3.5 | 9.6 | 0.00 | 0.00 | 0.00 | 53 | 1015.3 |
| 20260830093010 | 73 | 265 | 3.5 | 8.7 | 0.00 | 0.00 | 0.00 | 57 | 1015.4 |
| 20260830092012 | 73 | 265 | 1.7 | 8.7 | 0.00 | 0.00 | 0.00 | 57 | 1015.4 |
| 20260830091010 | 73 | 277 | 4.3 | 9.6 | 0.00 | 0.00 | 0.00 | 54 | 1015.4 |
| 20260830090010 | 73 | 225 | 4.3 | 11.3 | 0.00 | 0.00 | 0.00 | 53 | 1015.4 |
| 20260830085010 | 73 | 225 | 4.3 | 11.3 | 0.00 | 0.00 | 0.00 | 53 | 1015.4 |
| 20260830084010 | 71 | 291 | 6.1 | 13.9 | 0.00 | 0.00 | 0.00 | 58 | 1015.3 |
| 20260830083011 | 71 | 291 | 6.1 | 13.9 | 0.00 | 0.00 | 0.00 | 58 | 1015.3 |
| 20260830082010 | 70 | 165 | 5.2 | 15.6 | 0.00 | 0.00 | 0.00 | 57 | 1015.4 |
| 20260830081011 | 70 | 165 | 5.2 | 15.6 | 0.00 | 0.00 | 0.00 | 57 | 1015.4 |
| 20260830080010 | 70 | 201 | 3.5 | 11.3 | 0.00 | 0.00 | 0.00 | 61 | 1015.3 |
| 20260830075010 | 70 | 198 | 2.6 | 8.7 | 0.00 | 0.00 | 0.00 | 61 | 1015.3 |
| 20260830074011 | 70 | 198 | 1.7 | 8.7 | 0.00 | 0.00 | 0.00 | 61 | 1015.3 |
| 20260830073010 | 69 | 196 | 3.5 | 8.7 | 0.00 | 0.00 | 0.00 | 59 | 1015.2 |
| 20260830072010 | 69 | 196 | 3.5 | 8.7 | 0.00 | 0.00 | 0.00 | 59 | 1015.2 |
| 20260830071012 | 68 | 231 | 3.5 | 11.3 | 0.00 | 0.00 | 0.00 | 60 | 1015.2 |
| 20260830070012 | 68 | 199 | 1.7 | 6.1 | 0.00 | 0.00 | 0.00 | 62 | 1015.2 |
| 20260830065012 | 67 | 162 | 2.6 | 7.8 | 0.00 | 0.00 | 0.00 | 61 | 1015.1 |
| 20260830064013 | 66 | 213 | 2.6 | 9.6 | 0.00 | 0.00 | 0.00 | 63 | 1015.1 |
| 20260830063012 | 65 | 118 | 0.0 | 5.2 | 0.00 | 0.00 | 0.00 | 65 | 1015.2 |
| 20260830062012 | 65 | 113 | 1.7 | 5.2 | 0.00 | 0.00 | 0.00 | 65 | 1015.0 |
| 20260830061012 | 64 | 97 | 1.7 | 3.5 | 0.00 | 0.00 | 0.00 | 66 | 1015.0 |
| 20260830060012 | 63 | 96 | 2.6 | 5.2 | 0.00 | 0.00 | 0.00 | 66 | 1015.0 |
| 20260830055012 | 62 | 146 | 1.7 | 3.5 | 0.00 | 0.00 | 0.00 | 67 | 1015.1 |
| 20260830054012 | 62 | 147 | 1.7 | 2.6 | 0.00 | 0.00 | 0.00 | 67 | 1015.0 |
| 20260830053012 | 62 | 147 | 1.7 | 2.6 | 0.00 | 0.00 | 0.00 | 67 | 1014.9 |
| 20260830052011 | 62 | 173 | 0.9 | 2.6 | 0.00 | 0.00 | 0.00 | 68 | 1014.9 |
| 20260830051012 | 62 | 173 | 1.7 | 2.6 | 0.00 | 0.00 | 0.00 | 68 | 1014.9 |
| 20260830050012 | 62 | 173 | 0.9 | 2.6 | 0.00 | 0.00 | 0.00 | 67 | 1014.9 |
| 20260830045012 | 62 | 173 | 0.9 | 2.6 | 0.00 | 0.00 | 0.00 | 68 | 1014.8 |
| 20260830044012 | 62 | 173 | 0.0 | 2.6 | 0.00 | 0.00 | 0.00 | 68 | 1014.8 |
| 20260830043011 | 61 | 180 | 0.0 | 2.6 | 0.00 | 0.00 | 0.00 | 68 | 1014.8 |